Regional Weather Roundup
Issued by NWS

Home | Current Version | Previous Version | Graphics & Text | Print | Product List | Glossary On
Versions: 1 2 3 4 5 6 7 8 9 10 11 12 13 14 15 16 17 18 19 20 21 22 23 24 25 26 27 28 29 30 31 32 33 34 35 36 37 38 39 40 41 42 43 44 45 46 47 48 49 50
800
ASUS43 KTOP 190259
RWRKS

WEATHER ROUNDUP FOR KANSAS
NATIONAL WEATHER SERVICE GOODLAND KS
1000 PM CDT FRI AUG 18 2017

NOTE:  "FAIR" INDICATES FEW OR NO CLOUDS BELOW 12,000 FEET WITH NO
SIGNIFICANT WEATHER AND/OR OBSTRUCTIONS TO VISIBILITY.

KSZ001>006-013>018-027>032-041>047-190400-
NORTHWEST KANSAS

CITY           SKY/WX    TMP DP  RH WIND       PRES   REMARKS
GOODLAND       FAIR      65  57  75 SE9       30.09R
HAYS           FAIR      72  62  71 NE9       29.99R
HILL CITY      FAIR      68  62  81 CALM      30.02R
RUSSELL        FAIR      75  63  66 NE7       29.97R
$$

KSZ061>065-074>080-084>089-190400-
SOUTHWEST KANSAS

CITY           SKY/WX    TMP DP  RH WIND       PRES   REMARKS
DODGE CITY     FAIR      78  64  61 SW5       30.00R
ELKHART          N/A     74  68  82 S8          N/A
GARDEN CITY    FAIR      79  60  52 E7        30.04R
GREAT BEND     FAIR      79  67  66 NE9       29.97R
LIBERAL        FAIR      77  70  79 S7        30.03S
$$

KSZ066>073-081>083-090>101-190400-
SOUTHEAST KANSAS

CITY           SKY/WX    TMP DP  RH WIND       PRES   REMARKS
CHANUTE        FAIR      75  70  84 S6        29.95R
COFFEYVILLE    FAIR      76  73  91 S5        29.92R
HUTCHINSON     FAIR      78  68  71 SE7       29.95R
MEDICINE LODGE   N/A     82  67  60 S8        29.94R
NEWTON         FAIR      76  69  79 S7        29.97R
PARSONS        FAIR      73  71  93 CALM      29.95S
WICHITA INTL   FAIR      78  67  68 SE6       29.94R
WICHITA JABRA  FAIR      77  69  76 SE3       29.95R
WICHITA MCCONL FAIR      80  65  60 SE5       29.95R
WINFIELD       FAIR      79  70  74 SE6       29.95R
$$

KSZ007>012-019>026-033>040-048>060-102>105-190400-
NORTHEAST KANSAS

CITY           SKY/WX    TMP DP  RH WIND       PRES   REMARKS
CONCORDIA      FAIR      74  67  78 W3        29.96R
EMPORIA        FAIR      75  69  81 S6        29.94R
LAWRENCE       FAIR      74  72  93 CALM      29.92R
MANHATTAN      FAIR      74  70  87 CALM      29.93R
OLATHE IND     FAIR      75  71  87 S3        29.94R
OLATHE EXE     FAIR      75  71  87 S3        29.94R
SALINA         FAIR      84  68  58 E6        29.95R
TOPEKA BILLARD FAIR      76  70  82 CALM      29.92R
TOPEKA FORBES  FAIR      76  72  87 CALM      29.94R
$$




USA.gov is the U.S. government's official web portal to all federal, state and local government web resources and services.